Lid_Strength_Index
4 3 3 3 2 2 3 3 4 4 5 5 5 4 5 5 5 5 4 4 4 4 5 4 3 3 3 3 4 4 4 4
4 3 3 2 3 3 4 4 4 4 4 5 4 5 4 5 5 5 5 4 4 5 4 4 3 3 3 4 5 6 6 6
4 4 3 3 3 4 4 5 4 4 4 5 5 5 5 5 5 5 6 6 5 4 5 5 3 4 3 4 4 5 5 6
5 5 4 3 3 3 4 4 4 6 6 5 6 6 6 7 6 7 7 6 5 5 5 5 4 4 4 5 5 4 5 5
5 4 4 4 4 3 4 5 5 6 5 5 5 6 7 7 8 7 7 6 6 6 5 5 5 4 5 5 4 5 5 5
5 5 4 4 4 4 4 5 5 5 4 4 5 7 6 6 8 8 7 7 6 5 4 4 4 5 5 5 5 5 5 5
5 6 6 5 5 4 5 5 4 4 4 5 6 6 6 6 8 8 7 7 6 5 4 4 5 5 5 5 5 5 6 6
5 5 4 5 5 5 4 4 4 4 4 3 3 4 5 6 7 7 7 7 6 5 4 5 5 5 4 4 5 5 6 7
5 5 4 4 4 4 3 3 4 4 3 3 3 4 4 6 6 6 5 5 5 5 4 4 4 4 4 4 5 5 6 6
5 5 4 4 3 3 3 2 2 2 1 3 2 3 5 5 5 4 4 4 3 4 4 4 4 4 4 4 5 5 5 5
5 5 4 3 3 3 3 2 2 2 2 3 2 3 4 4 4 4 4 3 3 4 4 4 4 3 4 4 5 5 5 5
5 5 4 3 3 3 3 3 3 3 3 3 4 4 4 4 4 4 3 3 3 3 4 4 4 4 4 4 4 4 4 5
5 4 4 4 3 3 3 3 3 3 3 4 4 4 5 5 4 4 4 4 4 3 4 4 3 3 4 4 4 4 4 4
5 5 5 4 4 3 3 3 3 4 4 4 5 5 5 6 5 4 4 4 4 4 3 3 2 2 3 3 3 4 4 4
5 5 5 4 4 3 3 3 4 5 4 5 5 5 5 5 5 5 6 6 6 6 7 6 6 6 6 4 4 4 5 6
6 5 5 4 4 3 3 3 3 4 4 5 6 7 6 6 7 7 7 7 7 8 8 8 8 8 8 6 6 7 8 9
6 5 5 4 4 4 3 3 4 5 5 7 8 8 8 9 9 9 9 9 9 8 9 9 9 9 10 9 7 8 8 9
6 6 4 4 4 4 4 4 6 7 7 8 9 8 9 9 9 9 10 11 10 11 11 11 11 11 10 10 10 10 10 10
6 6 6 4 5 6 8 7 7 8 8 8 9 9 10 10 10 12 12 12 13 13 13 13 12 11 11 11 11 11 11 10